Oregon State Current Weather Observations

 
 ASUS46 KPQR 230610
 RWROR 
 
 OREGON REGIONAL WEATHER ROUNDUP
 NATIONAL WEATHER SERVICE PORTLAND OR
 1100 PM PDT MON APR 22 2019
 
 NOTE: "FAIR" INDICATES FEW OR NO CLOUDS BELOW 12,000 FEET WITH
 NO SIGNIFICANT WEATHER AND/OR OBSTRUCTIONS TO VISIBILITY.
 
 ORZ001>013-230700-
 NORTHWEST OREGON
 
   
 CITY           SKY/WX    TMP DP  RH WIND       PRES   REMARKS
 ASTORIA        LGT RAIN  48  46  93 SE6       30.23F FOG              
 6HR MIN TEMP:  48; 6HR MAX TEMP:  53; 6HR PCP:  0.09;                
 
 TILLAMOOK      CLOUDY    50  46  87 CALM      30.27S                  
 NEWPORT        CLOUDY    50  46  87 CALM      30.28F                  
 PORTLAND       CLOUDY    56  52  86 W6        30.23F                  
 6HR MIN TEMP:  56; 6HR MAX TEMP:  65; 6HR PCP:  0.01;                
 
 VANCOUVER WA   CLOUDY    56  52  86 NW3       30.23F                  
 6HR MIN TEMP:  55; 6HR MAX TEMP:  65; 6HR PCP:  0.02;                
 
 SCAPPOOSE      CLOUDY    57  54  89 CALM      30.23F                  
 6HR MIN TEMP:  57; 6HR MAX TEMP:  64; 6HR PCP:  0.02;                
 
 HILLSBORO      CLOUDY    55  52  89 NW3       30.23S                  
 6HR MIN TEMP:  55; 6HR MAX TEMP:  63; 6HR PCP:  0.01;                
 
 AURORA         CLOUDY    58  53  84 CALM      30.23F                  
 6HR MIN TEMP:  58; 6HR MAX TEMP:  65; 6HR PCP: TRACE;                
 
 MCMINNVILLE    CLOUDY    55  44  66 SW7       30.22F                  
 6HR MIN TEMP:  55; 6HR MAX TEMP:  64; 6HR PCP: TRACE;                
 
 SALEM          CLOUDY    58  45  62 CALM      30.22F                  
 6HR MIN TEMP:  58; 6HR MAX TEMP:  67; 6HR PCP: TRACE;                
 
 CORVALLIS      CLOUDY    55  49  80 NW10      30.25F                  
 EUGENE         MOCLDY    56  50  80 NE7       30.25F                  
 6HR MIN TEMP:  56; 6HR MAX TEMP:  69;                                
 
 
ORZ021-028-230700- SOUTHWEST OREGON CITY SKY/WX TMP DP RH WIND PRES REMARKS NORTH BEND CLOUDY 54 49 83 CALM 30.29F 6HR MIN TEMP: 53; 6HR MAX TEMP: 58; BROOKINGS PTCLDY 52 48 86 CALM 30.24S ROSEBURG PTCLDY 64 49 57 NW5 30.24S 6HR MIN TEMP: 63; 6HR MAX TEMP: 78; SEXTON SUMMIT MOCLDY 54 41 61 N6 30.30S 6HR MIN TEMP: 54; 6HR MAX TEMP: 66; GRANTS PASS FAIR 64 45 48 E3 30.25S MEDFORD PTCLDY 68 43 40 NW3 30.24R 6HR MIN TEMP: 66; 6HR MAX TEMP: 78;
ORZ014>016-041-230700- COLUMBIA GORGE CITY SKY/WX TMP DP RH WIND PRES REMARKS TROUTDALE CLOUDY 58 51 78 CALM 30.22F 6HR MIN TEMP: 58; 6HR MAX TEMP: 66; 6HR PCP: TRACE; HOOD RIVER CLOUDY 57 45 62 MISG 30.20F THE DALLES CLOUDY 60 45 57 W9 30.18F 6HR MIN TEMP: 60; 6HR MAX TEMP: 69;
ORZ029>031-041-044-049-050-061>064-502-503-505>511-230700- EASTERN OREGON CITY SKY/WX TMP DP RH WIND PRES REMARKS MADRAS CLOUDY 55 48 76 CALM 30.24R REDMOND CLOUDY 55 45 68 S8 30.22F 6HR MIN TEMP: 55; 6HR MAX TEMP: 72; BEND MOCLDY 57 43 58 SW5 30.25F PRINEVILLE CLOUDY 55 45 67 S9 30.24F KLAMATH FALLS PTCLDY 53 43 68 NW9 30.27S 6HR MIN TEMP: 51; 6HR MAX TEMP: 69; LAKEVIEW MOCLDY 53 40 61 N12 30.28R HERMISTON CLOUDY 61 46 57 SW15 30.14S 6HR MIN TEMP: 60; 6HR MAX TEMP: 76; 6HR PCP: TRACE; PENDLETON LGT RAIN 58 44 60 W10 30.16S 6HR MIN TEMP: 58; 6HR MAX TEMP: 70; 6HR PCP: TRACE; JOHN DAY CLOUDY 57 43 58 W5 30.24S MEACHAM CLOUDY 49 39 68 CALM 30.22S 6HR MIN TEMP: 48; 6HR MAX TEMP: 62; LA GRANDE CLOUDY 56 44 64 SW5 30.20S 6HR MIN TEMP: 56; 6HR MAX TEMP: 69; BAKER CITY CLOUDY 54 39 57 S3 30.20F 6HR MIN TEMP: 53; 6HR MAX TEMP: 69; BURNS MOCLDY 51 40 65 W6 30.25R 6HR MIN TEMP: 50; 6HR MAX TEMP: 71; ROME N/A 48 32 53 S10 30.21S 6HR MIN TEMP: 47; 6HR MAX TEMP: 70; ONTARIO CLEAR 53 42 66 W7 30.17S 6HR MIN TEMP: 53; 6HR MAX TEMP: 75;

Data from: http://www.wrh.noaa.gov/sew/get.php?pil=RWR&sid=OR&version=0&format=printer

Current Observations

Current Weather Conditions by Major Highway
Washington State Current Weather Observations   …  Oregon State Current Weather Observation



48 Hour Forecast


Seattle  …  Vancouver  …  Portland
————————————————————————————————————————
Bend  …  Spokane  …  Richland  …  Pendleton  …  Blue Mountains I-84  …  Yakima
————————————————————————————————————————
Goldendale, Washington Higher Elevations  …  Dallesport Airport - Goldendale  …  Bingen - White Salmon - Hood River  …  Index





Top of Page